Starlink 31200

operational
NORAD ID: 58862 Int'l Des: 2024-019 Owner: SPXS Country: US Constellation: starlink
LEOCIRCULAR

About Starlink 31200

Description loading...

Live Position

Loading 3D Globe...

Upcoming Passes

Altitude History

Altitude vs Time

uPlot chart will show altitude changes over time

Two-Line Element Set

1 58862U 24019K 25259.95960903 -.00000215 00000-0 17283-5 0 9994
2 58862 43.0006 149.9724 0001923 282.4148 77.6488 15.27568354 92517
Epoch: Sep 16, 2025 • Age: 23 hours

Current Status

Altitude 485.0 km
Velocity 7.62 km/s
Sub-Earth Point -11.26°S, 11.92°E
Launch Date Jan 29, 2024
Age 1.6 years
Type internet

Technical Details

Classification Payload
Mass 730.00 kg
Dry Mass 700.00 kg
Total Mass 730.00 kg
Length 0.30 m
Diameter 4.10 m
Span 29.00 m
Shape Box + pan
Manufacturer SPXS
Bus Type Starlink V2M
Phase Status In Orbit
Owner/State SPXS/US

Large Constellations

Loading constellations...